Погода Петропавловск-Камч.

Погода Петропавловск-Камч. : погода сейчас, прогноз погоды и архив. Всё, что Вы хотите узнать о погоде Петропавловск-Камч.!

Хотите узнать прогноз погоды Петропавловск-Камч.? Тогда Вам сюда: Погода Петропавловск-Камч.

Поиск расширенной информации на нашем сайте:

Полезная информация:

Другие новости

Новости СМИ2

Главная страница сайта

Новости сайта

03.07.2017

Напоминаем, что на нашем специализированном сайте Метеоцентр.Азия вы можете получить высокодетализированные автоматические прогнозы погоды по пунктам России, СНГ и мира в авиационном формате (включающие направление и скорость ветра, видимость, явления погоды, количество и форму облачности, нижнюю и верхнюю границу облачности).

Рекомендуем:

Погода Петропавловск-Камч. - сегодня

Время (UTC), дата Ветер
(°,м/с) 
Видим.   Явления Облачность Т
(°С)
Тd
(°С)
f(%) Тe
(°С)
Pmin
(гПа)
dP
(гПа)
Po
(мм)
O2
(г/м3)
Тmin Tmax R s Состояние
почвы
09 15.09.19 тихо ()   20000 м    10/10 600 м 
[Sc]
+9.4 +5.8 78 +9  1014.2  1.1  758  294    +11     
12 15.09.19 360 (С) 20000 м    10/10 600 м 
[Sc]
+8.4 +6.7 89 +8  1015.2  1.1  759  296           
15 15.09.19 350 (С) 20000 м    5/5 600 м 
[Sc]
+7.3 +5.4 88 +7  1015.9  0.7  760  297           
18 15.09.19 350 (С) 20000 м    ясно 
+6.4 +4.9 90 +6  1016.9  0.9  760  299           
21 15.09.19 100 (В) 20000 м  местами туман поземный  1/1 600 м 
[Sc]
+7.3 +5.2 86 +8  1018.5  1.7  762  298  +6.1        влажная 
00 16.09.19 290 (З) 20000 м    ясно 
+11.4 +6.7 73 +13  1018.8  0.3  762  294           
03 16.09.19 тихо ()   20000 м    1/1 200 м 
[St]
+15.8 +5.8 51 +16  1017.8  -1  761  289           
06 16.09.19 130 (ЮВ) 20000 м    ясно 
+13.6 +7 64 +14  1017.7  -0.1  761  291           
09 16.09.19 130 (ЮВ) 20000 м    ясно 
+9.4 +5.3 76 +10  1018.9  1.2  762  296    +15.9       
12 16.09.19 040 (СВ) 20000 м    ясно 
+9.3 +5.2 76 +10  1019.9  0.9  763  296           
15 16.09.19 тихо ()   20000 м    9/9 600 м 
[Sc]
+8.5 +6.7 88 +9  1019.5  -0.4  762  297           
18 16.09.19 290 (З) 20000 м    10/10 600 м 
[Sc]
+8 +6.3 89 +9  1019.1  -0.4  762  297           
21 16.09.19 330 (СЗ) 20000 м    10/10 300 м 
[Sc]
+7.5 +5.9 90 +8  1018.3  -0.8  761  298  +6.9        влажная 
00 17.09.19 220 (ЮЗ) 20000 м    10/10 600 м 
[Sc]
+8.6 +5.8 83 +10  1017  -1.2  761  296           
03 17.09.19 130 (ЮВ) 20000 м    10/10 600 м 
[Sc]
+9.8 +5.3 74 +10  1014.3  -2.7  759  294           
06 17.09.19 160 (Ю) 10 км  слаб. ливневой дождь  10/10 300 м кучево-дожд. 
[Cb cap]
+8.5 +6.3 86 +10  1011.9  -2.4  757  295           
09 17.09.19 230 (ЮЗ) 10 км  слаб. ливневой дождь  10/10 200 м кучево-дожд. 
[Cb cap]
+8.7 +6.2 84 +10  1010.9  -1  756  294    +10.3     
12 17.09.19 080 (В) 5-13{13}  10 км  {ливн. осадки}  10/10 600 м 
[Sc]
+9.3 +4.3 71 +8  1007.6  -3.3  754  293           
15 17.09.19 060 (СВ) 5-14{14}  10 км  слаб. ливневой дождь  10/10 600 м кучево-дожд. 
[Cb cap]
+9.2 +4.5 72 +8  1004.6  -3  751  292           
18 17.09.19 020 (С) 1{16}  10 км  слаб. ливневой дождь  10/10 300 м кучево-дожд. 
[Cb cap]
+7.8 +6.4 91 +9  1003.9  -0.6  751  293           
21 17.09.19 360 (С) 20000 м  туман поземный{ливн. осадки}  10/10 600 м 
[Sc]
+8.1 +6.1 87 +8  1004.1  0.2  751  293  +7.7       
00 18.09.19 310 (СЗ) 20000 м  туман поземный{ливн. осадки}  10/10 600 м 
[Sc]
+11.1 +6.9 75 +11  1005  0.9  752  290           
03 18.09.19 350 (С) 20000 м    10/10 600 м 
[Sc]
+11.8 +7.4 74 +13  1005.3  0.3  752  289           
06 18.09.19 тихо ()   20000 м    10/10 600 м 
[Sc]
+12.1 +6.4 68 +12  1006.1  0.8  752  289           
09 18.09.19 тихо ()   20000 м    10/10 600 м 
[Sc]
+10.1 +5.3 72 +10  1008.2  754  292    +13.2       
Время (UTC), дата Ветер
(°,м/с) 
Видим.   Явления Облачность Т
(°С)
Тd
(°С)
f(%) Тe
(°С)
Pmin
(гПа)
dP
(гПа)
Po
(мм)
O2
(г/м3)
Тmin Tmax R s Состояние
почвы

Для получения пояснительной информации подведите курсор к названию столбца.

ПОГОДА Петропавловск-Камч. - архив

Всё, что Вы хотите узнать о погоде Петропавловск-Камч. - удобно и подробно!

Выберите нужную дату (начиная с 1 января 2018* года) и нажмите кнопку "Найти".
Будут отображены архивные сводки погоды по пункту Петропавловск-Камч., начиная с указанной даты.


Отображать данные в формате CSV (для использования в таблицах Excel)


Внимание! Наш архив погоды предназначен исключительно для личного некоммерческого использования в познавательных целях. Если Вам необходимы официальные справки о состоянии погоды (для производственных, юридических, коммерческих и т.п. целей), обращайтесь в органы Росгидромета.

*Примечание: данная дата относится к архиву по метеостанциям СССР (Россия, СНГ, Балтия).
Архив по метеостанциям Зарубежной Европы и Азии (кроме Китая) хранится 10 дней, по другим регионам земного шара (Китай, Африка, Америка, Австралия, Океания) - 1 день.

Петропавловск-Камч. - район местоположения метеостанции


Название, широта, долгота, высота метеостанции:
Петропавловск-Камч. (обсерватория) 53°ш. 158.6°д. 24 м над ур. моря [Российская Федерация]

Дополнительная информация

В oтличие oт бoльшинства пoгoдных сайтoв мы публикуем пoдрoбную метеoинфoрмацию в детальнoм прoфессиoнальнoм фoрмате.

Характеристики температуры и влажнoсти вoздуха измеряются на высoте 2 м в тени вдали oт зданий и деревьев.
Скoрoсть ветра измеряется на высoте 10 м (на урoвне рoста челoвека скoрoсть ветра ниже в 1.5-2 раза). Если метеoстанция нахoдится в гoрoде или в лесу, тo скoрoсть ветра занижена на 2-4 м/с пo сравнению с oткрытым местoм. Скoрoсть ветра над акватoриями крупных рек и oзёр, а также на вершинах хoлмoв на 2-5 м/с выше, чем в oбычных услoвиях.
Атмoсфернoе давление в разных тoчках местнoсти мoжет значительнo oтличаться oт давления на метеoстанции, в зависимoсти oт услoвий рельефа (при пoдъёме на 10 м давление пoнижается примернo на 1 мм рт.ст.).